Year,Month,Day,Hour,Minute,Value (Times are PST for temperature in C)
2015,06,09,00,00,15.40
2015,06,09,00,01,15.40
2015,06,09,00,02,15.40
2015,06,09,00,03,15.30
2015,06,09,00,04,15.30
2015,06,09,00,05,15.30
2015,06,09,00,06,15.30
2015,06,09,00,07,15.20
2015,06,09,00,08,15.20
2015,06,09,00,09,15.20
2015,06,09,00,10,15.20
2015,06,09,00,11,15.20
2015,06,09,00,12,15.10
2015,06,09,00,13,15.10
2015,06,09,00,14,15.10
2015,06,09,00,15,15.00
2015,06,09,00,16,15.00
2015,06,09,00,17,15.00
2015,06,09,00,18,15.00
2015,06,09,00,19,14.90
2015,06,09,00,20,14.90
2015,06,09,00,21,14.90
2015,06,09,00,22,14.90
2015,06,09,00,23,14.90
2015,06,09,00,24,14.80
2015,06,09,00,25,14.80
2015,06,09,00,26,14.80
2015,06,09,00,27,14.80
2015,06,09,00,28,14.80
2015,06,09,00,29,14.80
2015,06,09,00,30,14.80
2015,06,09,00,31,14.70
2015,06,09,00,32,14.70
2015,06,09,00,33,14.70
2015,06,09,00,34,14.70
2015,06,09,00,35,14.70
2015,06,09,00,36,14.70
2015,06,09,00,37,14.70
2015,06,09,00,38,14.70
2015,06,09,00,39,14.70
2015,06,09,00,40,14.70
2015,06,09,00,41,14.70
2015,06,09,00,42,14.70
2015,06,09,00,43,14.70
2015,06,09,00,44,14.70
2015,06,09,00,45,14.70
2015,06,09,00,46,14.70
2015,06,09,00,47,14.70
2015,06,09,00,48,14.70
2015,06,09,00,49,14.70
2015,06,09,00,50,14.70
2015,06,09,00,51,14.70
2015,06,09,00,52,14.70
2015,06,09,00,53,14.80
2015,06,09,00,54,14.80
2015,06,09,00,55,14.80
2015,06,09,00,56,14.70
2015,06,09,00,57,14.70
2015,06,09,00,58,14.70
2015,06,09,00,59,14.70
2015,06,09,01,00,14.70
2015,06,09,01,01,14.60
2015,06,09,01,02,14.60
2015,06,09,01,03,14.60
2015,06,09,01,04,14.60
2015,06,09,01,05,14.60
2015,06,09,01,06,14.60
2015,06,09,01,07,14.60
2015,06,09,01,08,14.60
2015,06,09,01,09,14.60
2015,06,09,01,10,14.50
2015,06,09,01,11,14.50
2015,06,09,01,12,14.50
2015,06,09,01,13,14.40
2015,06,09,01,14,14.40
2015,06,09,01,15,14.40
2015,06,09,01,16,14.40
2015,06,09,01,17,14.40
2015,06,09,01,18,14.40
2015,06,09,01,19,14.30
2015,06,09,01,20,14.30
2015,06,09,01,21,14.30
2015,06,09,01,22,14.30
2015,06,09,01,23,14.20
2015,06,09,01,24,14.20
2015,06,09,01,25,14.20
2015,06,09,01,26,14.20
2015,06,09,01,27,14.20
2015,06,09,01,28,14.20
2015,06,09,01,29,14.20
2015,06,09,01,30,14.20
2015,06,09,01,31,14.20
2015,06,09,01,32,14.20
2015,06,09,01,33,14.20
2015,06,09,01,34,14.20
2015,06,09,01,35,14.20
2015,06,09,01,36,14.20
2015,06,09,01,37,14.20
2015,06,09,01,38,14.20
2015,06,09,01,39,14.20
2015,06,09,01,40,14.20
2015,06,09,01,41,14.20
2015,06,09,01,42,14.20
2015,06,09,01,43,14.10
2015,06,09,01,44,14.10
2015,06,09,01,45,14.10
2015,06,09,01,46,14.10
2015,06,09,01,47,14.10
2015,06,09,01,48,14.10
2015,06,09,01,49,14.10
2015,06,09,01,50,14.10
2015,06,09,01,51,14.10
2015,06,09,01,52,14.10
2015,06,09,01,53,14.10
2015,06,09,01,54,14.00
2015,06,09,01,55,14.00
2015,06,09,01,56,14.00
2015,06,09,01,57,13.90
2015,06,09,01,58,13.90
2015,06,09,01,59,13.90
2015,06,09,02,00,13.90
2015,06,09,02,01,13.80
2015,06,09,02,02,13.80
2015,06,09,02,03,13.80
2015,06,09,02,04,13.80
2015,06,09,02,05,13.80
2015,06,09,02,06,13.80
2015,06,09,02,07,13.80
2015,06,09,02,08,13.80
2015,06,09,02,09,13.80
2015,06,09,02,10,13.80
2015,06,09,02,11,13.70
2015,06,09,02,12,13.70
2015,06,09,02,13,13.70
2015,06,09,02,14,13.70
2015,06,09,02,15,13.70
2015,06,09,02,16,13.70
2015,06,09,02,17,13.70
2015,06,09,02,18,13.60
2015,06,09,02,19,13.60
2015,06,09,02,20,13.60
2015,06,09,02,21,13.60
2015,06,09,02,22,13.60
2015,06,09,02,23,13.60
2015,06,09,02,24,13.50
2015,06,09,02,25,13.50
2015,06,09,02,26,13.50
2015,06,09,02,27,13.40
2015,06,09,02,28,13.40
2015,06,09,02,29,13.40
2015,06,09,02,30,13.30
2015,06,09,02,31,13.30
2015,06,09,02,32,13.30
2015,06,09,02,33,13.20
2015,06,09,02,34,13.20
2015,06,09,02,35,13.20
2015,06,09,02,36,13.10
2015,06,09,02,37,13.10
2015,06,09,02,38,13.10
2015,06,09,02,39,13.00
2015,06,09,02,40,13.00
2015,06,09,02,41,13.00
2015,06,09,02,42,12.90
2015,06,09,02,43,12.90
2015,06,09,02,44,12.90
2015,06,09,02,45,12.90
2015,06,09,02,46,12.90
2015,06,09,02,47,12.80
2015,06,09,02,48,12.80
2015,06,09,02,49,12.80
2015,06,09,02,50,12.80
2015,06,09,02,51,12.80
2015,06,09,02,52,12.80
2015,06,09,02,53,12.70
2015,06,09,02,54,12.70
2015,06,09,02,55,12.70
2015,06,09,02,56,12.70
2015,06,09,02,57,12.70
2015,06,09,02,58,12.70
2015,06,09,02,59,12.60
2015,06,09,03,00,12.60
2015,06,09,03,01,12.60
2015,06,09,03,02,12.60
2015,06,09,03,03,12.60
2015,06,09,03,04,12.60
2015,06,09,03,05,12.60
2015,06,09,03,06,12.50
2015,06,09,03,07,12.50
2015,06,09,03,08,12.50
2015,06,09,03,09,12.50
2015,06,09,03,10,12.50
2015,06,09,03,11,12.40
2015,06,09,03,12,12.40
2015,06,09,03,13,12.40
2015,06,09,03,14,12.40
2015,06,09,03,15,12.40
2015,06,09,03,16,12.40
2015,06,09,03,17,12.30
2015,06,09,03,18,12.30
2015,06,09,03,19,12.30
2015,06,09,03,20,12.30
2015,06,09,03,21,12.30
2015,06,09,03,22,12.30
2015,06,09,03,23,12.30
2015,06,09,03,24,12.30
2015,06,09,03,25,12.20
2015,06,09,03,26,12.20
2015,06,09,03,27,12.20
2015,06,09,03,28,12.20
2015,06,09,03,29,12.20
2015,06,09,03,30,12.20
2015,06,09,03,31,12.10
2015,06,09,03,32,12.10
2015,06,09,03,33,12.10
2015,06,09,03,34,12.10
2015,06,09,03,35,12.10
2015,06,09,03,36,12.10
2015,06,09,03,37,12.10
2015,06,09,03,38,12.10
2015,06,09,03,39,12.10
2015,06,09,03,40,12.00
2015,06,09,03,41,12.00
2015,06,09,03,42,12.00
2015,06,09,03,43,12.00
2015,06,09,03,44,11.90
2015,06,09,03,45,11.90
2015,06,09,03,46,11.90
2015,06,09,03,47,11.90
2015,06,09,03,48,11.80
2015,06,09,03,49,11.80
2015,06,09,03,50,11.80
2015,06,09,03,51,11.80
2015,06,09,03,52,11.70
2015,06,09,03,53,11.70
2015,06,09,03,54,11.70
2015,06,09,03,55,11.70
2015,06,09,03,56,11.70
2015,06,09,03,57,11.60
2015,06,09,03,58,11.60
2015,06,09,03,59,11.60
2015,06,09,04,00,11.60
2015,06,09,04,01,11.60
2015,06,09,04,02,11.50
2015,06,09,04,03,11.50
2015,06,09,04,04,11.40
2015,06,09,04,05,11.40
2015,06,09,04,06,11.40
2015,06,09,04,07,11.40
2015,06,09,04,08,11.40
2015,06,09,04,09,11.30
2015,06,09,04,10,11.30
2015,06,09,04,11,11.30
2015,06,09,04,12,11.30
2015,06,09,04,13,11.30
2015,06,09,04,14,11.30
2015,06,09,04,15,11.30
2015,06,09,04,16,11.20
2015,06,09,04,17,11.20
2015,06,09,04,18,11.20
2015,06,09,04,19,11.20
2015,06,09,04,20,11.20
2015,06,09,04,21,11.20
2015,06,09,04,22,11.20
2015,06,09,04,23,11.20
2015,06,09,04,24,11.20
2015,06,09,04,25,11.20
2015,06,09,04,26,11.20
2015,06,09,04,27,11.10
2015,06,09,04,28,11.10
2015,06,09,04,29,11.10
2015,06,09,04,30,11.10
2015,06,09,04,31,11.00
2015,06,09,04,32,11.00
2015,06,09,04,33,10.90
2015,06,09,04,34,10.90
2015,06,09,04,35,10.90
2015,06,09,04,36,10.80
2015,06,09,04,37,10.80
2015,06,09,04,38,10.80
2015,06,09,04,39,10.80
2015,06,09,04,40,10.80
2015,06,09,04,41,10.70
2015,06,09,04,42,10.70
2015,06,09,04,43,10.70
2015,06,09,04,44,10.70
2015,06,09,04,45,10.70
2015,06,09,04,46,10.60
2015,06,09,04,47,10.60
2015,06,09,04,48,10.60
2015,06,09,04,49,10.60
2015,06,09,04,50,10.60
2015,06,09,04,51,10.60
2015,06,09,04,52,10.60
2015,06,09,04,53,10.50
2015,06,09,04,54,10.50
2015,06,09,04,55,10.50
2015,06,09,04,56,10.40
2015,06,09,04,57,10.40
2015,06,09,04,58,10.40
2015,06,09,04,59,10.40
2015,06,09,05,00,10.40
2015,06,09,05,01,10.40
2015,06,09,05,02,10.40
2015,06,09,05,03,10.40
2015,06,09,05,04,10.40
2015,06,09,05,05,10.30
2015,06,09,05,06,10.30
2015,06,09,05,07,10.30
2015,06,09,05,08,10.30
2015,06,09,05,09,10.30
2015,06,09,05,10,10.30
2015,06,09,05,11,10.30
2015,06,09,05,12,10.30
2015,06,09,05,13,10.30
2015,06,09,05,14,10.30
2015,06,09,05,15,10.30
2015,06,09,05,16,10.30
2015,06,09,05,17,10.20
2015,06,09,05,18,10.20
2015,06,09,05,19,10.20
2015,06,09,05,20,10.20
2015,06,09,05,21,10.20
2015,06,09,05,22,10.20
2015,06,09,05,23,10.20
2015,06,09,05,24,10.20
2015,06,09,05,25,10.20
2015,06,09,05,26,10.10
2015,06,09,05,27,10.10
2015,06,09,05,28,10.10
2015,06,09,05,29,10.10
2015,06,09,05,30,10.10
2015,06,09,05,31,10.10
2015,06,09,05,32,10.10
2015,06,09,05,33,10.10
2015,06,09,05,34,10.10
2015,06,09,05,35,10.10
2015,06,09,05,36,10.10
2015,06,09,05,37,10.20
2015,06,09,05,38,10.20
2015,06,09,05,39,10.20
2015,06,09,05,40,10.20
2015,06,09,05,41,10.20
2015,06,09,05,42,10.20
2015,06,09,05,43,10.20
2015,06,09,05,44,10.20
2015,06,09,05,45,10.20
2015,06,09,05,46,10.20
2015,06,09,05,47,10.20
2015,06,09,05,48,10.30
2015,06,09,05,49,10.30
2015,06,09,05,50,10.30
2015,06,09,05,51,10.30
2015,06,09,05,52,10.30
2015,06,09,05,53,10.30
2015,06,09,05,54,10.30
2015,06,09,05,55,10.40
2015,06,09,05,56,10.40
2015,06,09,05,57,10.40
2015,06,09,05,58,10.40
2015,06,09,05,59,10.40
2015,06,09,06,00,10.50
2015,06,09,06,01,10.50
2015,06,09,06,02,10.50
2015,06,09,06,03,10.60
2015,06,09,06,04,10.60
2015,06,09,06,05,10.60
2015,06,09,06,06,10.60
2015,06,09,06,07,10.60
2015,06,09,06,08,10.70
2015,06,09,06,09,10.70
2015,06,09,06,10,10.70
2015,06,09,06,11,10.80
2015,06,09,06,12,10.80
2015,06,09,06,13,10.80
2015,06,09,06,14,10.80
2015,06,09,06,15,10.80
2015,06,09,06,16,10.80
2015,06,09,06,17,10.80
2015,06,09,06,18,10.80
2015,06,09,06,19,10.80
2015,06,09,06,20,10.80
2015,06,09,06,21,10.80
2015,06,09,06,22,10.80
2015,06,09,06,23,10.80
2015,06,09,06,24,10.80
2015,06,09,06,25,10.90
2015,06,09,06,26,10.90
2015,06,09,06,27,10.90
2015,06,09,06,28,10.90
2015,06,09,06,29,10.90
2015,06,09,06,30,11.00
2015,06,09,06,31,11.00
2015,06,09,06,32,11.00
2015,06,09,06,33,11.00
2015,06,09,06,34,11.00
2015,06,09,06,35,11.10
2015,06,09,06,36,11.10
2015,06,09,06,37,11.10
2015,06,09,06,38,11.10
2015,06,09,06,39,11.20
2015,06,09,06,40,11.20
2015,06,09,06,41,11.20
2015,06,09,06,42,11.20
2015,06,09,06,43,11.20
2015,06,09,06,44,11.20
2015,06,09,06,45,11.20
2015,06,09,06,46,11.30
2015,06,09,06,47,11.30
2015,06,09,06,48,11.30
2015,06,09,06,49,11.30
2015,06,09,06,50,11.30
2015,06,09,06,51,11.40
2015,06,09,06,52,11.40
2015,06,09,06,53,11.40
2015,06,09,06,54,11.40
2015,06,09,06,55,11.50
2015,06,09,06,56,11.50
2015,06,09,06,57,11.60
2015,06,09,06,58,11.60
2015,06,09,06,59,11.70
2015,06,09,07,00,11.70
2015,06,09,07,01,11.80
2015,06,09,07,02,11.80
2015,06,09,07,03,11.90
2015,06,09,07,04,12.00
2015,06,09,07,05,12.10
2015,06,09,07,06,12.10
2015,06,09,07,07,12.10
2015,06,09,07,08,12.10
2015,06,09,07,09,12.20
2015,06,09,07,10,12.20
2015,06,09,07,11,12.30
2015,06,09,07,12,12.30
2015,06,09,07,13,12.30
2015,06,09,07,14,12.40
2015,06,09,07,15,12.40
2015,06,09,07,16,12.50
2015,06,09,07,17,12.50
2015,06,09,07,18,12.60
2015,06,09,07,19,12.70
2015,06,09,07,20,12.80
2015,06,09,07,21,12.90
2015,06,09,07,22,13.00
2015,06,09,07,23,13.10
2015,06,09,07,24,13.20
2015,06,09,07,25,13.30
2015,06,09,07,26,13.30
2015,06,09,07,27,13.40
2015,06,09,07,28,13.40
2015,06,09,07,29,13.40
2015,06,09,07,30,13.40
2015,06,09,07,31,13.50
2015,06,09,07,32,13.60
2015,06,09,07,33,13.70
2015,06,09,07,34,13.80
2015,06,09,07,35,13.90
2015,06,09,07,36,13.90
2015,06,09,07,37,14.00
2015,06,09,07,38,14.00
2015,06,09,07,39,14.10
2015,06,09,07,40,14.00
2015,06,09,07,41,14.00
2015,06,09,07,42,14.00
2015,06,09,07,43,14.10
2015,06,09,07,44,14.10
2015,06,09,07,45,14.10
2015,06,09,07,46,14.20
2015,06,09,07,47,14.20
2015,06,09,07,48,14.30
2015,06,09,07,49,14.40
2015,06,09,07,50,14.50
2015,06,09,07,51,14.50
2015,06,09,07,52,14.60
2015,06,09,07,53,14.70
2015,06,09,07,54,14.70
2015,06,09,07,55,14.80
2015,06,09,07,56,14.90
2015,06,09,07,57,15.00
2015,06,09,07,58,15.00
2015,06,09,07,59,15.10
2015,06,09,08,00,15.20
2015,06,09,08,01,15.30
2015,06,09,08,02,15.30
2015,06,09,08,03,15.40
2015,06,09,08,04,15.40
2015,06,09,08,05,15.50
2015,06,09,08,06,15.50
2015,06,09,08,07,15.60
2015,06,09,08,08,15.60
2015,06,09,08,09,15.70
2015,06,09,08,10,15.70
2015,06,09,08,11,15.80
2015,06,09,08,12,15.90
2015,06,09,08,13,15.90
2015,06,09,08,14,16.00
2015,06,09,08,15,16.00
2015,06,09,08,16,16.00
2015,06,09,08,17,16.00
2015,06,09,08,18,16.00
2015,06,09,08,19,16.00
2015,06,09,08,20,16.00
2015,06,09,08,21,16.10
2015,06,09,08,22,16.10
2015,06,09,08,23,16.10
2015,06,09,08,24,16.20
2015,06,09,08,25,16.20
2015,06,09,08,26,16.20
2015,06,09,08,27,16.20
2015,06,09,08,28,16.20
2015,06,09,08,29,16.20
2015,06,09,08,30,16.20
2015,06,09,08,31,16.20
2015,06,09,08,32,16.30
2015,06,09,08,33,16.30
2015,06,09,08,34,16.30
2015,06,09,08,35,16.40
2015,06,09,08,36,16.40
2015,06,09,08,37,16.50
2015,06,09,08,38,16.70
2015,06,09,08,39,16.80
2015,06,09,08,40,16.80
2015,06,09,08,41,16.80
2015,06,09,08,42,16.80
2015,06,09,08,43,16.80
2015,06,09,08,44,16.80
2015,06,09,08,45,16.80
2015,06,09,08,46,16.80
2015,06,09,08,47,16.80
2015,06,09,08,48,16.90
2015,06,09,08,49,17.00
2015,06,09,08,50,17.10
2015,06,09,08,51,17.10
2015,06,09,08,52,17.20
2015,06,09,08,53,17.30
2015,06,09,08,54,17.30
2015,06,09,08,55,17.30
2015,06,09,08,56,17.40
2015,06,09,08,57,17.40
2015,06,09,08,58,17.40
2015,06,09,08,59,17.40
2015,06,09,09,00,17.30
2015,06,09,09,01,17.30
2015,06,09,09,02,17.30
2015,06,09,09,03,17.20
2015,06,09,09,04,17.20
2015,06,09,09,05,17.10
2015,06,09,09,06,17.00
2015,06,09,09,07,16.90
2015,06,09,09,08,16.80
2015,06,09,09,09,16.70
2015,06,09,09,10,16.80
2015,06,09,09,11,16.80
2015,06,09,09,12,16.80
2015,06,09,09,13,16.80
2015,06,09,09,14,16.80
2015,06,09,09,15,16.90
2015,06,09,09,16,16.90
2015,06,09,09,17,16.90
2015,06,09,09,18,17.00
2015,06,09,09,19,16.90
2015,06,09,09,20,16.80
2015,06,09,09,21,16.70
2015,06,09,09,22,16.70
2015,06,09,09,23,16.60
2015,06,09,09,24,16.70
2015,06,09,09,25,16.70
2015,06,09,09,26,16.70
2015,06,09,09,27,16.70
2015,06,09,09,28,16.80
2015,06,09,09,29,16.80
2015,06,09,09,30,16.90
2015,06,09,09,31,16.90
2015,06,09,09,32,16.90
2015,06,09,09,33,17.00
2015,06,09,09,34,17.00
2015,06,09,09,35,16.90
2015,06,09,09,36,16.80
2015,06,09,09,37,16.80
2015,06,09,09,38,16.80
2015,06,09,09,39,16.80
2015,06,09,09,40,16.80
2015,06,09,09,41,16.80
2015,06,09,09,42,16.80
2015,06,09,09,43,16.80
2015,06,09,09,44,16.80
2015,06,09,09,45,16.90
2015,06,09,09,46,16.90
2015,06,09,09,47,16.90
2015,06,09,09,48,16.90
2015,06,09,09,49,16.90
2015,06,09,09,50,17.00
2015,06,09,09,51,17.10
2015,06,09,09,52,17.20
2015,06,09,09,53,17.30
2015,06,09,09,54,17.30
2015,06,09,09,55,17.30
2015,06,09,09,56,17.30
2015,06,09,09,57,17.30
2015,06,09,09,58,17.30
2015,06,09,09,59,17.30
2015,06,09,10,00,17.30
2015,06,09,10,01,17.30
2015,06,09,10,02,17.40
2015,06,09,10,03,17.40
2015,06,09,10,04,17.40
2015,06,09,10,05,17.40
2015,06,09,10,06,17.40
2015,06,09,10,07,17.40
2015,06,09,10,08,17.40
2015,06,09,10,09,17.40
2015,06,09,10,10,17.40
2015,06,09,10,11,17.40
2015,06,09,10,12,17.30
2015,06,09,10,13,17.30
2015,06,09,10,14,17.30
2015,06,09,10,15,17.20
2015,06,09,10,16,17.20
2015,06,09,10,17,17.20
2015,06,09,10,18,17.30
2015,06,09,10,19,17.20
2015,06,09,10,20,17.20
2015,06,09,10,21,17.10
2015,06,09,10,22,17.10
2015,06,09,10,23,17.10
2015,06,09,10,24,17.00
2015,06,09,10,25,17.00
2015,06,09,10,26,16.90
2015,06,09,10,27,16.90
2015,06,09,10,28,16.90
2015,06,09,10,29,16.80
2015,06,09,10,30,16.80
2015,06,09,10,31,16.70
2015,06,09,10,32,16.70
2015,06,09,10,33,16.70
2015,06,09,10,34,16.70
2015,06,09,10,35,16.70
2015,06,09,10,36,16.70
2015,06,09,10,37,16.80
2015,06,09,10,38,16.80
2015,06,09,10,39,16.80
2015,06,09,10,40,16.80
2015,06,09,10,41,16.80
2015,06,09,10,42,16.80
2015,06,09,10,43,16.80
2015,06,09,10,44,16.80
2015,06,09,10,45,16.90
2015,06,09,10,46,16.90
2015,06,09,10,47,16.90
2015,06,09,10,48,16.90
2015,06,09,10,49,16.90
2015,06,09,10,50,16.90
2015,06,09,10,51,16.90
2015,06,09,10,52,17.00
2015,06,09,10,53,17.00
2015,06,09,10,54,16.90
2015,06,09,10,55,16.90
2015,06,09,10,56,16.90
2015,06,09,10,57,17.00
2015,06,09,10,58,17.10
2015,06,09,10,59,17.10
2015,06,09,11,00,17.20
2015,06,09,11,01,17.20
2015,06,09,11,02,17.30
2015,06,09,11,03,17.40
2015,06,09,11,04,17.40
2015,06,09,11,05,17.50
2015,06,09,11,06,17.50
2015,06,09,11,07,17.50
2015,06,09,11,08,17.50
2015,06,09,11,09,17.60
2015,06,09,11,10,17.60
2015,06,09,11,11,17.60
2015,06,09,11,12,17.50
2015,06,09,11,13,17.40
2015,06,09,11,14,17.30
2015,06,09,11,15,17.30
2015,06,09,11,16,17.40
2015,06,09,11,17,17.40
2015,06,09,11,18,17.40
2015,06,09,11,19,17.40
2015,06,09,11,20,17.40
2015,06,09,11,21,17.30
2015,06,09,11,22,17.30
2015,06,09,11,23,17.20
2015,06,09,11,24,17.20
2015,06,09,11,25,17.20
2015,06,09,11,26,17.20
2015,06,09,11,27,17.30
2015,06,09,11,28,17.20
2015,06,09,11,29,17.20
2015,06,09,11,30,17.20
2015,06,09,11,31,17.20
2015,06,09,11,32,17.20
2015,06,09,11,33,17.30
2015,06,09,11,34,17.40
2015,06,09,11,35,17.50
2015,06,09,11,36,17.50
2015,06,09,11,37,17.50
2015,06,09,11,38,17.50
2015,06,09,11,39,17.60
2015,06,09,11,40,17.50
2015,06,09,11,41,17.50
2015,06,09,11,42,17.50
2015,06,09,11,43,17.60
2015,06,09,11,44,17.60
2015,06,09,11,45,17.60
2015,06,09,11,46,17.60
2015,06,09,11,47,17.60
2015,06,09,11,48,17.50
2015,06,09,11,49,17.50
2015,06,09,11,50,17.50
2015,06,09,11,51,17.50
2015,06,09,11,52,17.50
2015,06,09,11,53,17.50
2015,06,09,11,54,17.50
2015,06,09,11,55,17.50
2015,06,09,11,56,17.50
2015,06,09,11,57,17.70
2015,06,09,11,58,17.80
2015,06,09,11,59,17.90
2015,06,09,12,00,18.10
2015,06,09,12,01,18.20
2015,06,09,12,02,18.20
2015,06,09,12,03,18.30
2015,06,09,12,04,18.30
2015,06,09,12,05,18.30
2015,06,09,12,06,18.40
2015,06,09,12,07,18.50
2015,06,09,12,08,18.50
2015,06,09,12,09,18.50
2015,06,09,12,10,18.60
2015,06,09,12,11,18.60
2015,06,09,12,12,18.50
2015,06,09,12,13,18.40
2015,06,09,12,14,18.40
2015,06,09,12,15,18.40
2015,06,09,12,16,18.50
2015,06,09,12,17,18.50
2015,06,09,12,18,18.60
2015,06,09,12,19,18.70
2015,06,09,12,20,18.70
2015,06,09,12,21,18.70
2015,06,09,12,22,18.80
2015,06,09,12,23,18.80
2015,06,09,12,24,18.80
2015,06,09,12,25,18.90
2015,06,09,12,26,18.90
2015,06,09,12,27,18.80
2015,06,09,12,28,18.70
2015,06,09,12,29,18.60
2015,06,09,12,30,18.60
2015,06,09,12,31,18.50
2015,06,09,12,32,18.50
2015,06,09,12,33,18.50
2015,06,09,12,34,18.60
2015,06,09,12,35,18.70
2015,06,09,12,36,18.70
2015,06,09,12,37,18.70
2015,06,09,12,38,18.70
2015,06,09,12,39,18.60
2015,06,09,12,40,18.60
2015,06,09,12,41,18.50
2015,06,09,12,42,18.50
2015,06,09,12,43,18.40
2015,06,09,12,44,18.40
2015,06,09,12,45,18.40
2015,06,09,12,46,18.50
2015,06,09,12,47,18.50
2015,06,09,12,48,18.60
2015,06,09,12,49,18.50
2015,06,09,12,50,18.50
2015,06,09,12,51,18.40
2015,06,09,12,52,18.40
2015,06,09,12,53,18.40
2015,06,09,12,54,18.40
2015,06,09,12,55,18.50
2015,06,09,12,56,18.60
2015,06,09,12,57,18.70
2015,06,09,12,58,18.80
2015,06,09,12,59,18.80
2015,06,09,13,00,18.90
2015,06,09,13,01,18.80
2015,06,09,13,02,18.80
2015,06,09,13,03,18.70
2015,06,09,13,04,18.70
2015,06,09,13,05,18.80
2015,06,09,13,06,18.90
2015,06,09,13,07,18.90
2015,06,09,13,08,19.00
2015,06,09,13,09,19.00
2015,06,09,13,10,18.90
2015,06,09,13,11,18.90
2015,06,09,13,12,18.90
2015,06,09,13,13,18.80
2015,06,09,13,14,18.80
2015,06,09,13,15,18.70
2015,06,09,13,16,18.70
2015,06,09,13,17,18.70
2015,06,09,13,18,18.70
2015,06,09,13,19,18.80
2015,06,09,13,20,18.80
2015,06,09,13,21,18.80
2015,06,09,13,22,18.70
2015,06,09,13,23,18.70
2015,06,09,13,24,18.70
2015,06,09,13,25,18.70
2015,06,09,13,26,18.70
2015,06,09,13,27,18.70
2015,06,09,13,28,18.60
2015,06,09,13,29,18.60
2015,06,09,13,30,18.60
2015,06,09,13,31,18.60
2015,06,09,13,32,18.70
2015,06,09,13,33,18.90
2015,06,09,13,34,19.00
2015,06,09,13,35,19.00
2015,06,09,13,36,19.00
2015,06,09,13,37,18.90
2015,06,09,13,38,18.80
2015,06,09,13,39,18.80
2015,06,09,13,40,18.70
2015,06,09,13,41,18.60
2015,06,09,13,42,18.60
2015,06,09,13,43,18.60
2015,06,09,13,44,18.60
2015,06,09,13,45,18.70
2015,06,09,13,46,18.80
2015,06,09,13,47,18.80
2015,06,09,13,48,18.70
2015,06,09,13,49,18.70
2015,06,09,13,50,18.70
2015,06,09,13,51,18.80
2015,06,09,13,52,18.80
2015,06,09,13,53,18.90
2015,06,09,13,54,19.00
2015,06,09,13,55,19.00
2015,06,09,13,56,19.10
2015,06,09,13,57,19.00
2015,06,09,13,58,18.90
2015,06,09,13,59,19.00
2015,06,09,14,00,19.00
2015,06,09,14,01,19.00
2015,06,09,14,02,19.00
2015,06,09,14,03,19.10
2015,06,09,14,04,19.20
2015,06,09,14,05,19.30
2015,06,09,14,06,19.30
2015,06,09,14,07,19.40
2015,06,09,14,08,19.40
2015,06,09,14,09,19.40
2015,06,09,14,10,19.50
2015,06,09,14,11,19.50
2015,06,09,14,12,19.60
2015,06,09,14,13,19.60
2015,06,09,14,14,19.60
2015,06,09,14,15,19.70
2015,06,09,14,16,19.70
2015,06,09,14,17,19.70
2015,06,09,14,18,19.70
2015,06,09,14,19,19.80
2015,06,09,14,20,19.80
2015,06,09,14,21,19.80
2015,06,09,14,22,19.90
2015,06,09,14,23,19.90
2015,06,09,14,24,19.90
2015,06,09,14,25,19.90
2015,06,09,14,26,19.90
2015,06,09,14,27,19.90
2015,06,09,14,28,19.90
2015,06,09,14,29,19.90
2015,06,09,14,30,19.90
2015,06,09,14,31,19.90
2015,06,09,14,32,19.90
2015,06,09,14,33,19.80
2015,06,09,14,34,19.80
2015,06,09,14,35,19.90
2015,06,09,14,36,19.90
2015,06,09,14,37,20.00
2015,06,09,14,38,20.00
2015,06,09,14,39,20.00
2015,06,09,14,40,20.00
2015,06,09,14,41,20.00
2015,06,09,14,42,20.00
2015,06,09,14,43,20.00
2015,06,09,14,44,20.00
2015,06,09,14,45,20.00
2015,06,09,14,46,20.00
2015,06,09,14,47,20.10
2015,06,09,14,48,20.10
2015,06,09,14,49,20.20
2015,06,09,14,50,20.20
2015,06,09,14,51,20.20
2015,06,09,14,52,20.20
2015,06,09,14,53,20.30
2015,06,09,14,54,20.40
2015,06,09,14,55,20.50
2015,06,09,14,56,20.50
2015,06,09,14,57,20.50
2015,06,09,14,58,20.50
2015,06,09,14,59,20.60
2015,06,09,15,00,20.60
2015,06,09,15,01,20.70
2015,06,09,15,02,20.70
2015,06,09,15,03,20.60
2015,06,09,15,04,20.60
2015,06,09,15,05,20.60
2015,06,09,15,06,20.60
2015,06,09,15,07,20.60
2015,06,09,15,08,20.70
2015,06,09,15,09,20.70
2015,06,09,15,10,20.60
2015,06,09,15,11,20.60
2015,06,09,15,12,20.60
2015,06,09,15,13,20.70
2015,06,09,15,14,20.80
2015,06,09,15,15,20.80
2015,06,09,15,16,20.90
2015,06,09,15,17,20.90
2015,06,09,15,18,20.90
2015,06,09,15,19,21.00
2015,06,09,15,20,21.20
2015,06,09,15,21,21.40
2015,06,09,15,22,21.60
2015,06,09,15,23,21.70
2015,06,09,15,24,21.70
2015,06,09,15,25,21.80
2015,06,09,15,26,21.70
2015,06,09,15,27,21.80
2015,06,09,15,28,21.80
2015,06,09,15,29,21.80
2015,06,09,15,30,21.80
2015,06,09,15,31,21.80
2015,06,09,15,32,21.70
2015,06,09,15,33,21.70
2015,06,09,15,34,21.60
2015,06,09,15,35,21.50
2015,06,09,15,36,21.40
2015,06,09,15,37,21.30
2015,06,09,15,38,21.20
2015,06,09,15,39,21.20
2015,06,09,15,40,21.30
2015,06,09,15,41,21.30
2015,06,09,15,42,21.40
2015,06,09,15,43,21.40
2015,06,09,15,44,21.40
2015,06,09,15,45,21.40
2015,06,09,15,46,21.40
2015,06,09,15,47,21.40
2015,06,09,15,48,21.40
2015,06,09,15,49,21.40
2015,06,09,15,50,21.40
2015,06,09,15,51,21.30
2015,06,09,15,52,21.30
2015,06,09,15,53,21.30
2015,06,09,15,54,21.30
2015,06,09,15,55,21.20
2015,06,09,15,56,21.20
2015,06,09,15,57,21.20
2015,06,09,15,58,21.20
2015,06,09,15,59,21.20
2015,06,09,16,00,21.10
2015,06,09,16,01,21.10
2015,06,09,16,02,21.20
2015,06,09,16,03,21.20
2015,06,09,16,04,21.10
2015,06,09,16,05,21.10
2015,06,09,16,06,21.10
2015,06,09,16,07,21.10
2015,06,09,16,08,21.10
2015,06,09,16,09,21.20
2015,06,09,16,10,21.10
2015,06,09,16,11,21.10
2015,06,09,16,12,21.10
2015,06,09,16,13,21.10
2015,06,09,16,14,21.10
2015,06,09,16,15,21.20
2015,06,09,16,16,21.20
2015,06,09,16,17,21.30
2015,06,09,16,18,21.30
2015,06,09,16,19,21.30
2015,06,09,16,20,21.30
2015,06,09,16,21,21.30
2015,06,09,16,22,21.30
2015,06,09,16,23,21.30
2015,06,09,16,24,21.20
2015,06,09,16,25,21.20
2015,06,09,16,26,21.20
2015,06,09,16,27,21.20
2015,06,09,16,28,21.30
2015,06,09,16,29,21.20
2015,06,09,16,30,21.20
2015,06,09,16,31,21.20
2015,06,09,16,32,21.30
2015,06,09,16,33,21.40
2015,06,09,16,34,21.40
2015,06,09,16,35,21.40
2015,06,09,16,36,21.40
2015,06,09,16,37,21.30
2015,06,09,16,38,21.40
2015,06,09,16,39,21.40
2015,06,09,16,40,21.40
2015,06,09,16,41,21.30
2015,06,09,16,42,21.30
2015,06,09,16,43,21.30
2015,06,09,16,44,21.30
2015,06,09,16,45,21.30
2015,06,09,16,46,21.30
2015,06,09,16,47,21.30
2015,06,09,16,48,21.30
2015,06,09,16,49,21.30
2015,06,09,16,50,21.30
2015,06,09,16,51,21.30
2015,06,09,16,52,21.20
2015,06,09,16,53,21.20
2015,06,09,16,54,21.20
2015,06,09,16,55,21.30
2015,06,09,16,56,21.30
2015,06,09,16,57,21.20
2015,06,09,16,58,21.20
2015,06,09,16,59,21.20
2015,06,09,17,00,21.20
2015,06,09,17,01,21.30
2015,06,09,17,02,21.30
2015,06,09,17,03,21.40
2015,06,09,17,04,21.50
2015,06,09,17,05,21.50
2015,06,09,17,06,21.60
2015,06,09,17,07,21.70
2015,06,09,17,08,21.70
2015,06,09,17,09,21.70
2015,06,09,17,10,21.70
2015,06,09,17,11,21.70
2015,06,09,17,12,21.70
2015,06,09,17,13,21.60
2015,06,09,17,14,21.60
2015,06,09,17,15,21.60
2015,06,09,17,16,21.60
2015,06,09,17,17,21.60
2015,06,09,17,18,21.70
2015,06,09,17,19,21.70